SCP
0 0 0 0 0 0 0 0 0 0 0 0 0 0 0 0 0 0 0 0 0 0 0 0 0 0 0 0 0 0 0 0
-0 0 0 0 0 0 0 0 0 0 0 0 0 0 0 0 0 0 0 0 0 0 0 0 0 0 0 0 0 0 0 0
0 0 0 0 0 0 0 0 0 0 0 0 0 0 0 0 0 0 0 0 0 0 0 0 0 0 0 0 0 0 0 0
0 0 0 0 0 0 0 0 0 0 0 0 0 0 0 0 0 0 0 0 0 0 0 0 0 0 0 0 0 0 0 0
0 0 0 0 0 0 0 0 0 0 0 0 0 0 0 0 0 0 0 0 0 0 0 0 0 0 0 0 0 0 0 0
0 0 0 0 0 0 0 0 0 0 0 0 0 0 0 0 0 0 0 0 0 0 0 0 0 0 0 0 0 0 0 0
0 0 0 0 0 0 0 0 0 0 0 0 0 0 0 0 0 0 0 0 0 0 0 0 0 0 0 0 0 0 0 0
0 0 0 0 0 0 0 0 0 0 0 0 0 0 0 0 0 0 0 0 0 0 0 0 0 0 0 0 0 0 0 0
0 0 0 0 0 0 0 0 0 0 0 0 0 0 0 0 0 0 0 0 0 0 0 0 0 0 0 0 0 0 0 0
0 0 0 0 0 0 0 0 0 0 0 0 0 0 0 0 0 0 0 0 0 0 0 0 0 0 0 0 0 0 0 0
0 0 0 0 0 0 0 0 0 0 0 0 0 0 0 0 0 0 0 0 0 0 0 0 0 0 0 0 0 0 0 0
0 0 0 0 0 0 0 0 0 0 0 0 0 0 0 0 0 0 0 0 0 0 0 0 0 0 0 0 0 0 0 0
0 0 0 0 0 0 0 0 0 0 0 0 0 0 0 0 0 0 0 0 0 0 0 0 0 0 0 0 0 0 0 0
0 0 0 0 0 0 0 0 0 0 0 0 0 0 0 0 0 0 0 0 0 0 0 0 0 0 0 0 0 0 0 0
0 0 0 0 0 0 0 0 0 0 0 0 0 0 0 0 0 0 0 0 0 0 0 0 0 0 0 0 0 0 0 0
0 0 0 0 0 0 0 0 0 0 0 0 0 0 0 0 0 0 0 0 0 0 0 0 0 0 0 0 0 0 0 0
0 0 0 0 0 0 0 0 0 0 0 0 0 0 0 0 0 0 0 0 0 0 0 0 0 0 0 0 0 0 0 0
0 0 0 0 0 0 0 0 0 0 0 0 0 0 0 0 0 0 0 0 0 0 0 0 0 0 0 0 0 0 0 0
-0 0 0 0 0 0 0 0 0 0 0 0 0 0 0 0 0 0 0 0 0 0 0 0 0 0 0 0 0 0 0 0
-0 -0 0 0 0 0 0 0 0 0 0 0 0 0 0 0 0 0 0 0 0 0 0 0 0 0 0 0 0 0 0 0
Wind_Speed_500mb
80 73 89 102 112 117 122 124 123 117 112 107 102 94 97 94 88 83 76 71 68 66 63 61 57 54 50 47 42 38 36 36
63 75 78 90 102 119 123 124 123 120 115 107 104 98 93 97 92 83 78 75 73 70 66 64 62 58 55 51 46 41 38 37
36 44 62 85 96 111 121 123 124 120 113 105 101 99 94 96 93 86 81 77 75 73 70 67 65 62 59 57 51 44 41 41
31 33 54 73 88 102 115 119 118 115 109 104 102 101 94 91 94 90 84 81 79 76 74 72 68 66 62 57 53 46 41 42
31 24 40 64 78 94 107 113 116 113 110 104 101 98 89 89 93 93 86 83 83 80 76 72 68 67 64 60 56 50 44 46
30 21 22 44 65 81 97 107 109 106 109 101 96 92 87 88 92 91 87 84 83 81 78 73 70 70 69 65 60 55 51 51
29 20 13 20 47 66 83 95 99 93 96 95 92 88 90 86 88 91 89 86 85 83 80 77 74 71 69 67 65 60 57 60
27 14 10 14 31 51 68 79 87 86 85 88 90 87 87 86 85 92 91 87 87 84 82 79 74 71 70 68 67 64 61 64
27 13 14 13 16 32 54 67 76 81 82 84 84 82 85 85 86 91 91 90 89 86 82 79 74 71 70 69 68 66 63 64
25 16 14 22 18 22 43 57 69 75 79 78 74 80 83 84 86 91 93 92 90 85 83 79 75 72 71 70 70 68 65 63
31 16 6 4 18 25 32 48 58 68 70 68 70 75 79 81 84 90 93 93 90 86 82 78 75 74 71 72 72 71 69 66
38 26 17 5 6 18 29 38 42 49 53 56 63 70 71 78 83 91 94 93 89 85 82 77 75 73 71 70 72 72 72 70
60 47 30 17 8 12 20 28 33 39 45 50 56 63 69 76 84 89 93 92 89 85 81 77 74 71 71 67 67 66 68 68
64 63 54 32 17 8 17 22 28 33 40 44 49 57 65 74 83 88 91 91 88 86 82 78 75 72 67 65 62 60 61 56
68 66 62 56 37 16 7 19 25 26 34 39 46 55 62 70 77 85 89 90 89 86 82 80 78 76 72 68 65 61 56 51
58 61 58 56 50 39 19 8 18 26 29 31 40 51 56 62 70 77 81 82 83 82 81 82 83 82 78 75 73 68 62 59
43 46 51 53 53 48 40 20 9 16 25 34 40 46 52 57 64 71 75 78 76 74 71 71 72 72 72 69 67 64 63 64
20 33 41 48 46 45 44 37 23 9 16 21 31 39 46 52 59 68 73 75 74 72 68 62 60 61 65 67 66 66 65 67
23 22 22 32 38 37 38 37 32 25 10 17 24 24 31 39 47 55 63 67 66 64 61 57 54 52 59 64 69 72 70 67
28 24 22 17 17 29 25 27 28 25 23 14 14 26 27 27 29 34 42 51 55 62 63 61 57 53 53 60 74 79 76 69
Wind_Direction_500mb
272 253 243 237 229 223 222 221 220 222 223 223 222 220 218 213 213 214 213 207 203 200 198 196 194 191 190 186 187 185 184 184
258 253 249 236 224 220 220 218 218 221 221 220 221 220 221 214 213 213 212 208 205 201 199 197 195 191 190 188 189 187 188 188
285 247 234 230 220 216 216 216 218 218 219 220 221 220 220 215 212 212 211 208 206 202 200 198 197 194 192 190 190 190 189 186
303 260 230 223 220 214 213 213 215 214 216 219 218 219 218 215 211 209 210 207 205 203 202 199 198 195 194 193 192 191 193 189
314 292 235 222 219 213 211 211 213 211 214 216 217 218 216 214 210 208 207 206 205 203 203 201 199 197 195 193 194 192 192 189
323 313 256 224 216 209 206 207 211 206 211 211 214 216 215 214 210 207 207 205 205 203 202 201 200 198 196 194 193 191 189 186
326 311 276 228 215 209 205 206 207 198 205 207 212 212 212 213 209 206 206 205 203 203 202 200 200 199 199 197 194 192 190 186
337 292 277 229 211 212 208 206 206 200 202 203 212 213 212 212 209 206 205 203 202 203 202 201 201 198 199 198 197 195 193 191
354 330 237 212 203 211 209 206 203 201 199 204 206 214 212 210 207 205 204 203 201 201 202 201 200 198 198 198 198 199 198 197
7 354 233 221 210 195 207 205 203 204 205 209 214 212 209 207 206 204 203 202 202 202 201 201 199 198 198 198 198 200 200 200
21 17 56 209 209 217 210 198 202 202 206 211 212 213 211 208 204 203 204 203 202 201 202 202 199 198 198 199 199 198 199 201
31 31 37 49 178 201 211 209 205 202 205 211 214 211 211 207 206 203 203 203 203 202 202 202 201 200 200 201 201 201 201 202
35 40 41 51 95 171 196 197 206 207 206 209 212 208 207 207 205 204 203 202 202 202 202 201 201 203 202 202 204 205 207 206
28 39 41 42 60 109 174 183 193 199 207 207 210 208 206 206 205 202 202 203 202 202 201 200 200 202 205 204 203 204 210 212
16 33 33 38 43 56 127 179 189 197 200 205 206 205 206 206 207 204 202 202 203 202 201 200 200 200 201 203 202 204 204 207
10 19 29 32 38 44 60 114 179 191 198 198 198 200 203 206 206 206 206 206 204 205 205 202 202 204 203 202 203 203 203 201
357 4 16 27 31 39 46 57 121 168 187 194 196 197 200 202 202 205 209 208 209 212 212 209 215 209 206 206 207 206 207 203
18 359 358 15 23 33 39 46 56 111 166 185 193 198 201 203 205 205 207 210 210 211 214 216 221 213 211 209 207 210 212 209
2 5 2 350 7 20 28 35 47 60 100 177 182 189 197 202 204 209 208 208 208 209 209 211 214 214 213 210 207 209 216 214
348 348 352 6 342 356 16 16 32 47 61 82 177 193 193 194 196 201 204 208 205 204 203 202 204 205 208 211 214 214 217 215
Wind_Speed_850mb
80 73 89 102 112 117 122 124 123 117 112 107 102 94 97 94 88 83 76 71 68 66 63 61 57 54 50 47 42 38 36 36
63 75 78 90 102 119 123 124 123 120 115 107 104 98 93 97 92 83 78 75 73 70 66 64 62 58 55 51 46 41 38 37
36 44 62 85 96 111 121 123 124 120 113 105 101 99 94 96 93 86 81 77 75 73 70 67 65 62 59 57 51 44 41 41
31 33 54 73 88 102 115 119 118 115 109 104 102 101 94 91 94 90 84 81 79 76 74 72 68 66 62 57 53 46 41 42
31 24 40 64 78 94 107 113 116 113 110 104 101 98 89 89 93 93 86 83 83 80 76 72 68 67 64 60 56 50 44 46
30 21 22 44 65 81 97 107 109 106 109 101 96 92 87 88 92 91 87 84 83 81 78 73 70 70 69 65 60 55 51 51
29 20 13 20 47 66 83 95 99 93 96 95 92 88 90 86 88 91 89 86 85 83 80 77 74 71 69 67 65 60 57 60
27 14 10 14 31 51 68 79 87 86 85 88 90 87 87 86 85 92 91 87 87 84 82 79 74 71 70 68 67 64 61 64
27 13 14 13 16 32 54 67 76 81 82 84 84 82 85 85 86 91 91 90 89 86 82 79 74 71 70 69 68 66 63 64
25 16 14 22 18 22 43 57 69 75 79 78 74 80 83 84 86 91 93 92 90 85 83 79 75 72 71 70 70 68 65 63
31 16 6 4 18 25 32 48 58 68 70 68 70 75 79 81 84 90 93 93 90 86 82 78 75 74 71 72 72 71 69 66
38 26 17 5 6 18 29 38 42 49 53 56 63 70 71 78 83 91 94 93 89 85 82 77 75 73 71 70 72 72 72 70
60 47 30 17 8 12 20 28 33 39 45 50 56 63 69 76 84 89 93 92 89 85 81 77 74 71 71 67 67 66 68 68
64 63 54 32 17 8 17 22 28 33 40 44 49 57 65 74 83 88 91 91 88 86 82 78 75 72 67 65 62 60 61 56
68 66 62 56 37 16 7 19 25 26 34 39 46 55 62 70 77 85 89 90 89 86 82 80 78 76 72 68 65 61 56 51
58 61 58 56 50 39 19 8 18 26 29 31 40 51 56 62 70 77 81 82 83 82 81 82 83 82 78 75 73 68 62 59
43 46 51 53 53 48 40 20 9 16 25 34 40 46 52 57 64 71 75 78 76 74 71 71 72 72 72 69 67 64 63 64
20 33 41 48 46 45 44 37 23 9 16 21 31 39 46 52 59 68 73 75 74 72 68 62 60 61 65 67 66 66 65 67
23 22 22 32 38 37 38 37 32 25 10 17 24 24 31 39 47 55 63 67 66 64 61 57 54 52 59 64 69 72 70 67
28 24 22 17 17 29 25 27 28 25 23 14 14 26 27 27 29 34 42 51 55 62 63 61 57 53 53 60 74 79 76 69
Wind_Direction_850mb
272 253 243 237 229 223 222 221 220 222 223 223 222 220 218 213 213 214 213 207 203 200 198 196 194 191 190 186 187 185 184 184
258 253 249 236 224 220 220 218 218 221 221 220 221 220 221 214 213 213 212 208 205 201 199 197 195 191 190 188 189 187 188 188
285 247 234 230 220 216 216 216 218 218 219 220 221 220 220 215 212 212 211 208 206 202 200 198 197 194 192 190 190 190 189 186
303 260 230 223 220 214 213 213 215 214 216 219 218 219 218 215 211 209 210 207 205 203 202 199 198 195 194 193 192 191 193 189
314 292 235 222 219 213 211 211 213 211 214 216 217 218 216 214 210 208 207 206 205 203 203 201 199 197 195 193 194 192 192 189
323 313 256 224 216 209 206 207 211 206 211 211 214 216 215 214 210 207 207 205 205 203 202 201 200 198 196 194 193 191 189 186
326 311 276 228 215 209 205 206 207 198 205 207 212 212 212 213 209 206 206 205 203 203 202 200 200 199 199 197 194 192 190 186
337 292 277 229 211 212 208 206 206 200 202 203 212 213 212 212 209 206 205 203 202 203 202 201 201 198 199 198 197 195 193 191
354 330 237 212 203 211 209 206 203 201 199 204 206 214 212 210 207 205 204 203 201 201 202 201 200 198 198 198 198 199 198 197
7 354 233 221 210 195 207 205 203 204 205 209 214 212 209 207 206 204 203 202 202 202 201 201 199 198 198 198 198 200 200 200
21 17 56 209 209 217 210 198 202 202 206 211 212 213 211 208 204 203 204 203 202 201 202 202 199 198 198 199 199 198 199 201
31 31 37 49 178 201 211 209 205 202 205 211 214 211 211 207 206 203 203 203 203 202 202 202 201 200 200 201 201 201 201 202
35 40 41 51 95 171 196 197 206 207 206 209 212 208 207 207 205 204 203 202 202 202 202 201 201 203 202 202 204 205 207 206
28 39 41 42 60 109 174 183 193 199 207 207 210 208 206 206 205 202 202 203 202 202 201 200 200 202 205 204 203 204 210 212
16 33 33 38 43 56 127 179 189 197 200 205 206 205 206 206 207 204 202 202 203 202 201 200 200 200 201 203 202 204 204 207
10 19 29 32 38 44 60 114 179 191 198 198 198 200 203 206 206 206 206 206 204 205 205 202 202 204 203 202 203 203 203 201
357 4 16 27 31 39 46 57 121 168 187 194 196 197 200 202 202 205 209 208 209 212 212 209 215 209 206 206 207 206 207 203
18 359 358 15 23 33 39 46 56 111 166 185 193 198 201 203 205 205 207 210 210 211 214 216 221 213 211 209 207 210 212 209
2 5 2 350 7 20 28 35 47 60 100 177 182 189 197 202 204 209 208 208 208 209 209 211 214 214 213 210 207 209 216 214
348 348 352 6 342 356 16 16 32 47 61 82 177 193 193 194 196 201 204 208 205 204 203 202 204 205 208 211 214 214 217 215